Regional Weather Roundup
Issued by NWS Cleveland, OH

Home | Current Version | Previous Version | Text Only | Print | Product List | Glossary Off
Versions: 1 2 3 4 5 6 7 8 9 10 11 12 13 14 15 16 17 18 19 20 21 22 23 24 25 26 27 28 29 30 31 32 33 34 35 36 37 38 39 40 41 42 43 44 45 46 47 48 49 50

000
ASUS41 KCLE 281310
RWRCLE
OHIO REGIONAL WEATHER ROUNDUP
NATIONAL WEATHER SERVICE CLEVELAND, OH
900 AM EDT THU APR 28 2016

NOTE: "FAIR" INDICATES FEW OR NO CLOUDS BELOW 12,000 FEET WITH NO
SIGNIFICANT WEATHER AND/OR OBSTRUCTIONS TO VISIBILITY.

OHZ001>008-015>018-024>027-034-035-043-044-281400-
   NORTHWEST OHIO

CITY           SKY/WX    TMP DP  RH WIND       PRES   REMARKS
DEFIANCE       CLOUDY    45  38  76 E10       29.92R
FINDLAY        CLOUDY    45  38  76 NE13      29.90R
TOLEDO EXPRESS LGT RAIN  42  39  89 E14       29.93S FOG
TOLEDO EXEC    LGT RAIN  44  38  79 E10       29.95S
LIMA           CLOUDY    45  42  89 E12       29.89R
$$

OHZ009>014-019>023-028>033-038-089-281400-
   NORTHEAST OHIO

CITY           SKY/WX    TMP DP  RH WIND       PRES   REMARKS
CLE-HOPKINS    LGT RAIN  45  38  76 N8        29.95R
CLE-LAKEFRONT  LGT RAIN  47  37  68 NE10      29.93R
CUY CO. ARPT   LGT RAIN  48  34  57 E9        29.94R
LORAIN-ELYRIA  LGT RAIN  44  39  82 NE9       29.93R
ASHTABULA      CLOUDY    45  28  51 E9        29.94F
AKRON-CANTON   LGT RAIN  45  35  68 NE8       29.90R
WOOSTER        RAIN      44  39  82 VRB3      29.90R
MANSFIELD      LGT RAIN  43  40  89 NE7       29.89R
YOUNGSTOWN     CLOUDY    49  28  44 E9        29.90F
$$

OHZ042-051>053-060>062-070>072-077>081-281400-
  SOUTHWEST OHIO

CITY           SKY/WX    TMP DP  RH WIND       PRES   REMARKS
CINC-COVINGTON CLOUDY    62  61  96 S5        29.83R
CINC-LUNKEN    CLOUDY    61  61 100 CALM      29.83S FOG
HAMILTON       FOG       58  58 100 NE6       29.84S VSB 1/2
DAYTON         CLOUDY    51  46  83 NE7       29.87R
WRIGHT-PAT AFB CLOUDY    52  49  89 NE6       29.85S
DAYTON GENERAL FOG       54  52  93 E6        29.84R VSB 3/4
WILMINGTON     FOG       54  54 100 NE6       29.84R VSB 1/4
$$

OHZ036-037-039>041-045>050-054>059-063>069-073>076-082>088-281400-
  CENTRAL AND SOUTHEAST OHIO

CITY           SKY/WX    TMP DP  RH WIND       PRES   REMARKS
COLUMBUS       CLOUDY    50  41  71 E6        29.87R
OSU AIRPORT    CLOUDY    49  41  74 E5        29.87R
BOLTON FIELD   CLOUDY    50  45  81 E6        29.87R
RICKENBACK AFB CLOUDY    49  44  81 NE9       29.86R
NEWARK         CLOUDY    50  40  68 VRB3      29.86S
MARION         CLOUDY    45  41  86 NE9       29.89R
LANCASTER      CLOUDY    51  46  83 E6        29.87R
ZANESVILLE     CLOUDY    51  44  77 NE5       29.86R
NEW PHILLY     LGT RAIN  46  40  79 VRB5      29.89R
$$




USA.gov is the U.S. government's official web portal to all federal, state and local government web resources and services.